owner,sensor,date,latitude,longitude,vertical_datum,sea_water_temperature,qcFlag 
WAVCIS,ioos:station:WAVCIS:CSI16:2,2009-11-01T00:00:00Z,29.4012,-89.0355,10.0,22.182,11111222 
WAVCIS,ioos:station:WAVCIS:CSI16:2,2009-11-01T00:15:00Z,29.4012,-89.0355,10.0,22.193,11111222 
WAVCIS,ioos:station:WAVCIS:CSI16:2,2009-11-01T00:30:00Z,29.4012,-89.0355,10.0,22.187,11111222 
WAVCIS,ioos:station:WAVCIS:CSI16:2,2009-11-01T00:45:00Z,29.4012,-89.0355,10.0,22.142,11111222 
WAVCIS,ioos:station:WAVCIS:CSI16:2,2009-11-01T01:00:00Z,29.4012,-89.0355,10.0,22.144,11111222 
WAVCIS,ioos:station:WAVCIS:CSI16:2,2009-11-01T01:15:00Z,29.4012,-89.0355,10.0,22.154,11111222 
WAVCIS,ioos:station:WAVCIS:CSI16:2,2009-11-01T01:30:00Z,29.4012,-89.0355,10.0,22.141,11111222 
WAVCIS,ioos:station:WAVCIS:CSI16:2,2009-11-01T01:45:00Z,29.4012,-89.0355,10.0,22.148,11111222 
WAVCIS,ioos:station:WAVCIS:CSI16:2,2009-11-01T02:00:00Z,29.4012,-89.0355,10.0,22.144,11111222 
WAVCIS,ioos:station:WAVCIS:CSI16:2,2009-11-01T02:15:00Z,29.4012,-89.0355,10.0,22.142,11111222 
WAVCIS,ioos:station:WAVCIS:CSI16:2,2009-11-01T02:30:00Z,29.4012,-89.0355,10.0,22.127,11111222 
WAVCIS,ioos:station:WAVCIS:CSI16:2,2009-11-01T02:45:00Z,29.4012,-89.0355,10.0,22.104,11111222 
WAVCIS,ioos:station:WAVCIS:CSI16:2,2009-11-01T03:00:00Z,29.4012,-89.0355,10.0,22.098,11111222 
WAVCIS,ioos:station:WAVCIS:CSI16:2,2009-11-01T03:15:00Z,29.4012,-89.0355,10.0,22.067,11111222 
WAVCIS,ioos:station:WAVCIS:CSI16:2,2009-11-01T03:30:00Z,29.4012,-89.0355,10.0,21.975,11111222 
WAVCIS,ioos:station:WAVCIS:CSI16:2,2009-11-01T03:45:00Z,29.4012,-89.0355,10.0,22.009,11111222 
WAVCIS,ioos:station:WAVCIS:CSI16:2,2009-11-01T04:00:00Z,29.4012,-89.0355,10.0,22.042,11111222 
WAVCIS,ioos:station:WAVCIS:CSI16:2,2009-11-01T04:15:00Z,29.4012,-89.0355,10.0,22.01,11111222 
WAVCIS,ioos:station:WAVCIS:CSI16:2,2009-11-01T04:30:00Z,29.4012,-89.0355,10.0,21.938,11111222 
WAVCIS,ioos:station:WAVCIS:CSI16:2,2009-11-01T04:45:00Z,29.4012,-89.0355,10.0,21.89,11111222 
WAVCIS,ioos:station:WAVCIS:CSI16:2,2009-11-01T05:00:00Z,29.4012,-89.0355,10.0,21.966,11111222 
WAVCIS,ioos:station:WAVCIS:CSI16:2,2009-11-01T05:15:00Z,29.4012,-89.0355,10.0,21.792,11111222 
WAVCIS,ioos:station:WAVCIS:CSI16:2,2009-11-01T05:30:00Z,29.4012,-89.0355,10.0,21.851,11111222 
WAVCIS,ioos:station:WAVCIS:CSI16:2,2009-11-01T05:45:00Z,29.4012,-89.0355,10.0,21.902,11111222 
WAVCIS,ioos:station:WAVCIS:CSI16:2,2009-11-01T06:00:00Z,29.4012,-89.0355,10.0,21.934,11111222 
WAVCIS,ioos:station:WAVCIS:CSI16:2,2009-11-01T06:15:00Z,29.4012,-89.0355,10.0,21.8,11111222 
WAVCIS,ioos:station:WAVCIS:CSI16:2,2009-11-01T06:30:00Z,29.4012,-89.0355,10.0,21.833,11111222 
WAVCIS,ioos:station:WAVCIS:CSI16:2,2009-11-01T06:45:00Z,29.4012,-89.0355,10.0,21.899,11111222 
WAVCIS,ioos:station:WAVCIS:CSI16:2,2009-11-01T07:00:00Z,29.4012,-89.0355,10.0,21.703,11111222 
WAVCIS,ioos:station:WAVCIS:CSI16:2,2009-11-01T07:15:00Z,29.4012,-89.0355,10.0,21.724,11111222 
WAVCIS,ioos:station:WAVCIS:CSI16:2,2009-11-01T07:30:00Z,29.4012,-89.0355,10.0,21.727,11111222 
WAVCIS,ioos:station:WAVCIS:CSI16:2,2009-11-01T07:45:00Z,29.4012,-89.0355,10.0,21.708,11111222 
WAVCIS,ioos:station:WAVCIS:CSI16:2,2009-11-01T08:00:00Z,29.4012,-89.0355,10.0,21.635,11111222 
WAVCIS,ioos:station:WAVCIS:CSI16:2,2009-11-01T08:15:00Z,29.4012,-89.0355,10.0,21.607,11111222 
WAVCIS,ioos:station:WAVCIS:CSI16:2,2009-11-01T08:30:00Z,29.4012,-89.0355,10.0,21.605,11111222 
WAVCIS,ioos:station:WAVCIS:CSI16:2,2009-11-01T08:45:00Z,29.4012,-89.0355,10.0,21.633,11111222 
WAVCIS,ioos:station:WAVCIS:CSI16:2,2009-11-01T09:00:00Z,29.4012,-89.0355,10.0,21.642,11111222 
WAVCIS,ioos:station:WAVCIS:CSI16:2,2009-11-01T09:15:00Z,29.4012,-89.0355,10.0,21.662,11111222 
WAVCIS,ioos:station:WAVCIS:CSI16:2,2009-11-01T09:30:00Z,29.4012,-89.0355,10.0,21.692,11111222 
WAVCIS,ioos:station:WAVCIS:CSI16:2,2009-11-01T09:45:00Z,29.4012,-89.0355,10.0,21.699,11111222 
WAVCIS,ioos:station:WAVCIS:CSI16:2,2009-11-01T10:00:00Z,29.4012,-89.0355,10.0,21.692,11111222 
WAVCIS,ioos:station:WAVCIS:CSI16:2,2009-11-01T10:15:00Z,29.4012,-89.0355,10.0,21.796,11111222 
WAVCIS,ioos:station:WAVCIS:CSI16:2,2009-11-01T10:30:00Z,29.4012,-89.0355,10.0,21.776,11111222 
WAVCIS,ioos:station:WAVCIS:CSI16:2,2009-11-01T10:45:00Z,29.4012,-89.0355,10.0,21.691,11111222 
WAVCIS,ioos:station:WAVCIS:CSI16:2,2009-11-01T11:00:00Z,29.4012,-89.0355,10.0,21.681,11111222 
WAVCIS,ioos:station:WAVCIS:CSI16:2,2009-11-01T11:15:00Z,29.4012,-89.0355,10.0,21.59,11111222 
WAVCIS,ioos:station:WAVCIS:CSI16:2,2009-11-01T11:30:00Z,29.4012,-89.0355,10.0,21.592,11111222 
WAVCIS,ioos:station:WAVCIS:CSI16:2,2009-11-01T11:45:00Z,29.4012,-89.0355,10.0,21.451,11111222 
WAVCIS,ioos:station:WAVCIS:CSI16:2,2009-11-01T12:00:00Z,29.4012,-89.0355,10.0,21.613,11111222 
WAVCIS,ioos:station:WAVCIS:CSI16:2,2009-11-01T12:15:00Z,29.4012,-89.0355,10.0,21.683,11111222 
WAVCIS,ioos:station:WAVCIS:CSI16:2,2009-11-01T12:30:00Z,29.4012,-89.0355,10.0,21.736,11111222 
WAVCIS,ioos:station:WAVCIS:CSI16:2,2009-11-01T12:45:00Z,29.4012,-89.0355,10.0,21.684,11111222 
WAVCIS,ioos:station:WAVCIS:CSI16:2,2009-11-01T13:00:00Z,29.4012,-89.0355,10.0,21.605,11111222 
WAVCIS,ioos:station:WAVCIS:CSI16:2,2009-11-01T13:15:00Z,29.4012,-89.0355,10.0,21.653,11111222 
WAVCIS,ioos:station:WAVCIS:CSI16:2,2009-11-01T13:30:00Z,29.4012,-89.0355,10.0,21.679,11111222 
WAVCIS,ioos:station:WAVCIS:CSI16:2,2009-11-01T13:45:00Z,29.4012,-89.0355,10.0,21.718,11111222 
WAVCIS,ioos:station:WAVCIS:CSI16:2,2009-11-01T14:00:00Z,29.4012,-89.0355,10.0,21.61,11111222 
WAVCIS,ioos:station:WAVCIS:CSI16:2,2009-11-01T14:15:00Z,29.4012,-89.0355,10.0,21.623,11111222 
WAVCIS,ioos:station:WAVCIS:CSI16:2,2009-11-01T14:30:00Z,29.4012,-89.0355,10.0,21.49,11111222 
WAVCIS,ioos:station:WAVCIS:CSI16:2,2009-11-01T14:45:00Z,29.4012,-89.0355,10.0,21.41,11111222 
WAVCIS,ioos:station:WAVCIS:CSI16:2,2009-11-01T15:00:00Z,29.4012,-89.0355,10.0,21.315,11111222 
WAVCIS,ioos:station:WAVCIS:CSI16:2,2009-11-01T15:15:00Z,29.4012,-89.0355,10.0,21.25,11111222 
WAVCIS,ioos:station:WAVCIS:CSI16:2,2009-11-01T15:30:00Z,29.4012,-89.0355,10.0,21.197,11111222 
WAVCIS,ioos:station:WAVCIS:CSI16:2,2009-11-01T15:45:00Z,29.4012,-89.0355,10.0,21.161,11111222 
WAVCIS,ioos:station:WAVCIS:CSI16:2,2009-11-01T16:00:00Z,29.4012,-89.0355,10.0,21.139,11111222 
WAVCIS,ioos:station:WAVCIS:CSI16:2,2009-11-01T16:15:00Z,29.4012,-89.0355,10.0,21.162,11111222 
WAVCIS,ioos:station:WAVCIS:CSI16:2,2009-11-01T16:30:00Z,29.4012,-89.0355,10.0,21.194,11111222 
WAVCIS,ioos:station:WAVCIS:CSI16:2,2009-11-01T16:45:00Z,29.4012,-89.0355,10.0,21.198,11111222 
WAVCIS,ioos:station:WAVCIS:CSI16:2,2009-11-01T17:00:00Z,29.4012,-89.0355,10.0,21.27,11111222 
WAVCIS,ioos:station:WAVCIS:CSI16:2,2009-11-01T17:15:00Z,29.4012,-89.0355,10.0,21.397,11111222 
WAVCIS,ioos:station:WAVCIS:CSI16:2,2009-11-01T17:30:00Z,29.4012,-89.0355,10.0,21.482,11111222 
WAVCIS,ioos:station:WAVCIS:CSI16:2,2009-11-01T17:45:00Z,29.4012,-89.0355,10.0,21.549,11111222 
WAVCIS,ioos:station:WAVCIS:CSI16:2,2009-11-01T18:00:00Z,29.4012,-89.0355,10.0,21.637,11111222 
WAVCIS,ioos:station:WAVCIS:CSI16:2,2009-11-01T18:15:00Z,29.4012,-89.0355,10.0,21.659,11111222 
WAVCIS,ioos:station:WAVCIS:CSI16:2,2009-11-01T18:30:00Z,29.4012,-89.0355,10.0,21.734,11111222 
WAVCIS,ioos:station:WAVCIS:CSI16:2,2009-11-01T18:45:00Z,29.4012,-89.0355,10.0,21.792,11111222 
WAVCIS,ioos:station:WAVCIS:CSI16:2,2009-11-01T19:00:00Z,29.4012,-89.0355,10.0,21.845,11111222 
WAVCIS,ioos:station:WAVCIS:CSI16:2,2009-11-01T19:15:00Z,29.4012,-89.0355,10.0,21.844,11111222 
WAVCIS,ioos:station:WAVCIS:CSI16:2,2009-11-01T19:30:00Z,29.4012,-89.0355,10.0,21.883,11111222 
WAVCIS,ioos:station:WAVCIS:CSI16:2,2009-11-01T19:45:00Z,29.4012,-89.0355,10.0,21.968,11111222 
WAVCIS,ioos:station:WAVCIS:CSI16:2,2009-11-01T20:00:00Z,29.4012,-89.0355,10.0,21.963,11111222 
WAVCIS,ioos:station:WAVCIS:CSI16:2,2009-11-01T20:15:00Z,29.4012,-89.0355,10.0,22.049,11111222 
WAVCIS,ioos:station:WAVCIS:CSI16:2,2009-11-01T20:30:00Z,29.4012,-89.0355,10.0,22.105,11111222 
WAVCIS,ioos:station:WAVCIS:CSI16:2,2009-11-01T20:45:00Z,29.4012,-89.0355,10.0,22.135,11111222 
WAVCIS,ioos:station:WAVCIS:CSI16:2,2009-11-01T21:00:00Z,29.4012,-89.0355,10.0,22.247,11111222 
WAVCIS,ioos:station:WAVCIS:CSI16:2,2009-11-01T21:15:00Z,29.4012,-89.0355,10.0,22.255,11111222 
WAVCIS,ioos:station:WAVCIS:CSI16:2,2009-11-01T21:30:00Z,29.4012,-89.0355,10.0,22.267,11111222 
WAVCIS,ioos:station:WAVCIS:CSI16:2,2009-11-01T21:45:00Z,29.4012,-89.0355,10.0,22.263,11111222 
WAVCIS,ioos:station:WAVCIS:CSI16:2,2009-11-01T22:00:00Z,29.4012,-89.0355,10.0,22.268,11111222 
WAVCIS,ioos:station:WAVCIS:CSI16:2,2009-11-01T22:15:00Z,29.4012,-89.0355,10.0,22.272,11111222 
WAVCIS,ioos:station:WAVCIS:CSI16:2,2009-11-01T22:30:00Z,29.4012,-89.0355,10.0,22.257,11111222 
WAVCIS,ioos:station:WAVCIS:CSI16:2,2009-11-01T22:45:00Z,29.4012,-89.0355,10.0,22.253,11111222 
WAVCIS,ioos:station:WAVCIS:CSI16:2,2009-11-01T23:00:00Z,29.4012,-89.0355,10.0,22.254,11111222 
WAVCIS,ioos:station:WAVCIS:CSI16:2,2009-11-01T23:15:00Z,29.4012,-89.0355,10.0,22.257,11111222 
WAVCIS,ioos:station:WAVCIS:CSI16:2,2009-11-01T23:30:00Z,29.4012,-89.0355,10.0,22.259,11111222 
WAVCIS,ioos:station:WAVCIS:CSI16:2,2009-11-01T23:45:00Z,29.4012,-89.0355,10.0,22.27,11111222 
WAVCIS,ioos:station:WAVCIS:CSI16:2,2009-11-02T00:00:00Z,29.4012,-89.0355,10.0,22.297,11111222 
WAVCIS,ioos:station:WAVCIS:CSI16:2,2009-11-02T00:15:00Z,29.4012,-89.0355,10.0,22.33,11111222 
WAVCIS,ioos:station:WAVCIS:CSI16:2,2009-11-02T00:30:00Z,29.4012,-89.0355,10.0,22.364,11111222 
WAVCIS,ioos:station:WAVCIS:CSI16:2,2009-11-02T00:45:00Z,29.4012,-89.0355,10.0,22.392,11111222 
WAVCIS,ioos:station:WAVCIS:CSI16:2,2009-11-02T01:00:00Z,29.4012,-89.0355,10.0,22.405,11111222 
WAVCIS,ioos:station:WAVCIS:CSI16:2,2009-11-02T01:15:00Z,29.4012,-89.0355,10.0,22.413,11111222 
WAVCIS,ioos:station:WAVCIS:CSI16:2,2009-11-02T01:30:00Z,29.4012,-89.0355,10.0,22.421,11111222 
WAVCIS,ioos:station:WAVCIS:CSI16:2,2009-11-02T01:45:00Z,29.4012,-89.0355,10.0,22.426,11111222 
WAVCIS,ioos:station:WAVCIS:CSI16:2,2009-11-02T02:00:00Z,29.4012,-89.0355,10.0,22.423,11111222 
WAVCIS,ioos:station:WAVCIS:CSI16:2,2009-11-02T02:15:00Z,29.4012,-89.0355,10.0,22.423,11111222 
WAVCIS,ioos:station:WAVCIS:CSI16:2,2009-11-02T02:30:00Z,29.4012,-89.0355,10.0,22.423,11111222 
WAVCIS,ioos:station:WAVCIS:CSI16:2,2009-11-02T02:45:00Z,29.4012,-89.0355,10.0,22.423,11111222 
WAVCIS,ioos:station:WAVCIS:CSI16:2,2009-11-02T03:00:00Z,29.4012,-89.0355,10.0,22.423,11111222 
WAVCIS,ioos:station:WAVCIS:CSI16:2,2009-11-02T03:15:00Z,29.4012,-89.0355,10.0,22.424,11111222 
WAVCIS,ioos:station:WAVCIS:CSI16:2,2009-11-02T03:30:00Z,29.4012,-89.0355,10.0,22.423,11111222 
WAVCIS,ioos:station:WAVCIS:CSI16:2,2009-11-02T03:45:00Z,29.4012,-89.0355,10.0,22.424,11111222 
WAVCIS,ioos:station:WAVCIS:CSI16:2,2009-11-02T04:00:00Z,29.4012,-89.0355,10.0,22.422,11111222 
WAVCIS,ioos:station:WAVCIS:CSI16:2,2009-11-02T04:15:00Z,29.4012,-89.0355,10.0,22.419,11111222 
WAVCIS,ioos:station:WAVCIS:CSI16:2,2009-11-02T04:30:00Z,29.4012,-89.0355,10.0,22.419,11111222 
WAVCIS,ioos:station:WAVCIS:CSI16:2,2009-11-02T04:45:00Z,29.4012,-89.0355,10.0,22.423,11111222 
WAVCIS,ioos:station:WAVCIS:CSI16:2,2009-11-02T05:00:00Z,29.4012,-89.0355,10.0,22.423,11111222 
WAVCIS,ioos:station:WAVCIS:CSI16:2,2009-11-02T05:15:00Z,29.4012,-89.0355,10.0,22.422,11111222 
WAVCIS,ioos:station:WAVCIS:CSI16:2,2009-11-02T05:30:00Z,29.4012,-89.0355,10.0,22.409,11111222 
WAVCIS,ioos:station:WAVCIS:CSI16:2,2009-11-02T05:45:00Z,29.4012,-89.0355,10.0,22.375,11111222 
WAVCIS,ioos:station:WAVCIS:CSI16:2,2009-11-02T06:00:00Z,29.4012,-89.0355,10.0,22.336,11111222 
WAVCIS,ioos:station:WAVCIS:CSI16:2,2009-11-02T06:15:00Z,29.4012,-89.0355,10.0,22.343,11111222 
WAVCIS,ioos:station:WAVCIS:CSI16:2,2009-11-02T06:30:00Z,29.4012,-89.0355,10.0,22.346,11111222 
WAVCIS,ioos:station:WAVCIS:CSI16:2,2009-11-02T06:45:00Z,29.4012,-89.0355,10.0,22.299,11111222 
WAVCIS,ioos:station:WAVCIS:CSI16:2,2009-11-02T07:00:00Z,29.4012,-89.0355,10.0,22.28,11111222 
WAVCIS,ioos:station:WAVCIS:CSI16:2,2009-11-02T07:15:00Z,29.4012,-89.0355,10.0,22.264,11111222 
WAVCIS,ioos:station:WAVCIS:CSI16:2,2009-11-02T07:30:00Z,29.4012,-89.0355,10.0,22.224,11111222 
WAVCIS,ioos:station:WAVCIS:CSI16:2,2009-11-02T07:45:00Z,29.4012,-89.0355,10.0,22.251,11111222 
WAVCIS,ioos:station:WAVCIS:CSI16:2,2009-11-02T08:00:00Z,29.4012,-89.0355,10.0,22.255,11111222 
WAVCIS,ioos:station:WAVCIS:CSI16:2,2009-11-02T08:15:00Z,29.4012,-89.0355,10.0,22.204,11111222 
WAVCIS,ioos:station:WAVCIS:CSI16:2,2009-11-02T08:30:00Z,29.4012,-89.0355,10.0,22.173,11111222 
WAVCIS,ioos:station:WAVCIS:CSI16:2,2009-11-02T08:45:00Z,29.4012,-89.0355,10.0,22.158,11111222 
WAVCIS,ioos:station:WAVCIS:CSI16:2,2009-11-02T09:00:00Z,29.4012,-89.0355,10.0,22.179,11111222 
WAVCIS,ioos:station:WAVCIS:CSI16:2,2009-11-02T09:15:00Z,29.4012,-89.0355,10.0,22.165,11111222 
WAVCIS,ioos:station:WAVCIS:CSI16:2,2009-11-02T09:30:00Z,29.4012,-89.0355,10.0,22.169,11111222 
WAVCIS,ioos:station:WAVCIS:CSI16:2,2009-11-02T09:45:00Z,29.4012,-89.0355,10.0,22.191,11111222 
WAVCIS,ioos:station:WAVCIS:CSI16:2,2009-11-02T10:00:00Z,29.4012,-89.0355,10.0,22.023,11111222 
WAVCIS,ioos:station:WAVCIS:CSI16:2,2009-11-02T10:15:00Z,29.4012,-89.0355,10.0,21.962,11111222 
WAVCIS,ioos:station:WAVCIS:CSI16:2,2009-11-02T10:30:00Z,29.4012,-89.0355,10.0,22.128,11111222 
WAVCIS,ioos:station:WAVCIS:CSI16:2,2009-11-02T10:45:00Z,29.4012,-89.0355,10.0,21.775,11111222 
WAVCIS,ioos:station:WAVCIS:CSI16:2,2009-11-02T11:00:00Z,29.4012,-89.0355,10.0,20.999,11111222 
WAVCIS,ioos:station:WAVCIS:CSI16:2,2009-11-02T11:15:00Z,29.4012,-89.0355,10.0,21.043,11111222 
WAVCIS,ioos:station:WAVCIS:CSI16:2,2009-11-02T11:30:00Z,29.4012,-89.0355,10.0,20.806,11111222 
WAVCIS,ioos:station:WAVCIS:CSI16:2,2009-11-02T11:45:00Z,29.4012,-89.0355,10.0,20.86,11111222 
WAVCIS,ioos:station:WAVCIS:CSI16:2,2009-11-02T12:00:00Z,29.4012,-89.0355,10.0,20.865,11111222 
WAVCIS,ioos:station:WAVCIS:CSI16:2,2009-11-02T12:15:00Z,29.4012,-89.0355,10.0,20.996,11111222 
WAVCIS,ioos:station:WAVCIS:CSI16:2,2009-11-02T12:30:00Z,29.4012,-89.0355,10.0,20.939,11111222 
WAVCIS,ioos:station:WAVCIS:CSI16:2,2009-11-02T12:45:00Z,29.4012,-89.0355,10.0,20.913,11111222 
WAVCIS,ioos:station:WAVCIS:CSI16:2,2009-11-02T13:00:00Z,29.4012,-89.0355,10.0,21.059,11111222 
WAVCIS,ioos:station:WAVCIS:CSI16:2,2009-11-02T13:15:00Z,29.4012,-89.0355,10.0,21.395,11111222 
WAVCIS,ioos:station:WAVCIS:CSI16:2,2009-11-02T13:30:00Z,29.4012,-89.0355,10.0,21.921,11111222 
WAVCIS,ioos:station:WAVCIS:CSI16:2,2009-11-02T13:45:00Z,29.4012,-89.0355,10.0,21.746,11111222 
WAVCIS,ioos:station:WAVCIS:CSI16:2,2009-11-02T14:00:00Z,29.4012,-89.0355,10.0,21.75,11111222 
WAVCIS,ioos:station:WAVCIS:CSI16:2,2009-11-02T14:15:00Z,29.4012,-89.0355,10.0,21.644,11111222 
WAVCIS,ioos:station:WAVCIS:CSI16:2,2009-11-02T14:30:00Z,29.4012,-89.0355,10.0,21.473,11111222 
WAVCIS,ioos:station:WAVCIS:CSI16:2,2009-11-02T14:45:00Z,29.4012,-89.0355,10.0,21.403,11111222 
WAVCIS,ioos:station:WAVCIS:CSI16:2,2009-11-02T15:00:00Z,29.4012,-89.0355,10.0,21.59,11111222 
WAVCIS,ioos:station:WAVCIS:CSI16:2,2009-11-02T15:15:00Z,29.4012,-89.0355,10.0,21.603,11111222 
WAVCIS,ioos:station:WAVCIS:CSI16:2,2009-11-02T15:30:00Z,29.4012,-89.0355,10.0,21.646,11111222 
WAVCIS,ioos:station:WAVCIS:CSI16:2,2009-11-02T15:45:00Z,29.4012,-89.0355,10.0,21.745,11111222 
WAVCIS,ioos:station:WAVCIS:CSI16:2,2009-11-02T16:00:00Z,29.4012,-89.0355,10.0,21.668,11111222 
WAVCIS,ioos:station:WAVCIS:CSI16:2,2009-11-02T16:15:00Z,29.4012,-89.0355,10.0,21.38,11111222 
WAVCIS,ioos:station:WAVCIS:CSI16:2,2009-11-02T16:30:00Z,29.4012,-89.0355,10.0,21.687,11111222 
WAVCIS,ioos:station:WAVCIS:CSI16:2,2009-11-02T16:45:00Z,29.4012,-89.0355,10.0,21.594,11111222 
WAVCIS,ioos:station:WAVCIS:CSI16:2,2009-11-02T17:00:00Z,29.4012,-89.0355,10.0,21.629,11111222 
WAVCIS,ioos:station:WAVCIS:CSI16:2,2009-11-02T17:15:00Z,29.4012,-89.0355,10.0,21.948,11111222 
WAVCIS,ioos:station:WAVCIS:CSI16:2,2009-11-02T17:30:00Z,29.4012,-89.0355,10.0,22.022,11111222 
WAVCIS,ioos:station:WAVCIS:CSI16:2,2009-11-02T17:45:00Z,29.4012,-89.0355,10.0,22.071,11111222 
WAVCIS,ioos:station:WAVCIS:CSI16:2,2009-11-02T18:00:00Z,29.4012,-89.0355,10.0,21.908,11111222 
WAVCIS,ioos:station:WAVCIS:CSI16:2,2009-11-02T18:15:00Z,29.4012,-89.0355,10.0,21.893,11111222 
WAVCIS,ioos:station:WAVCIS:CSI16:2,2009-11-02T18:30:00Z,29.4012,-89.0355,10.0,21.92,11111222 
WAVCIS,ioos:station:WAVCIS:CSI16:2,2009-11-02T18:45:00Z,29.4012,-89.0355,10.0,22.05,11111222 
WAVCIS,ioos:station:WAVCIS:CSI16:2,2009-11-02T19:00:00Z,29.4012,-89.0355,10.0,21.93,11111222 
WAVCIS,ioos:station:WAVCIS:CSI16:2,2009-11-02T19:15:00Z,29.4012,-89.0355,10.0,22.127,11111222 
WAVCIS,ioos:station:WAVCIS:CSI16:2,2009-11-02T19:30:00Z,29.4012,-89.0355,10.0,22.152,11111222 
WAVCIS,ioos:station:WAVCIS:CSI16:2,2009-11-02T19:45:00Z,29.4012,-89.0355,10.0,21.956,11111222 
WAVCIS,ioos:station:WAVCIS:CSI16:2,2009-11-02T20:00:00Z,29.4012,-89.0355,10.0,21.972,11111222 
WAVCIS,ioos:station:WAVCIS:CSI16:2,2009-11-02T20:15:00Z,29.4012,-89.0355,10.0,21.958,11111222 
WAVCIS,ioos:station:WAVCIS:CSI16:2,2009-11-02T20:30:00Z,29.4012,-89.0355,10.0,21.885,11111222 
WAVCIS,ioos:station:WAVCIS:CSI16:2,2009-11-02T20:45:00Z,29.4012,-89.0355,10.0,21.933,11111222 
WAVCIS,ioos:station:WAVCIS:CSI16:2,2009-11-02T21:00:00Z,29.4012,-89.0355,10.0,22.084,11111222 
WAVCIS,ioos:station:WAVCIS:CSI16:2,2009-11-02T21:15:00Z,29.4012,-89.0355,10.0,22.103,11111222 
WAVCIS,ioos:station:WAVCIS:CSI16:2,2009-11-02T21:30:00Z,29.4012,-89.0355,10.0,22.227,11111222 
WAVCIS,ioos:station:WAVCIS:CSI16:2,2009-11-02T21:45:00Z,29.4012,-89.0355,10.0,22.256,11111222 
WAVCIS,ioos:station:WAVCIS:CSI16:2,2009-11-02T22:00:00Z,29.4012,-89.0355,10.0,22.285,11111222 
WAVCIS,ioos:station:WAVCIS:CSI16:2,2009-11-02T22:15:00Z,29.4012,-89.0355,10.0,22.295,11111222 
WAVCIS,ioos:station:WAVCIS:CSI16:2,2009-11-02T22:30:00Z,29.4012,-89.0355,10.0,22.121,11111222 
WAVCIS,ioos:station:WAVCIS:CSI16:2,2009-11-02T22:45:00Z,29.4012,-89.0355,10.0,22.337,11111222 
WAVCIS,ioos:station:WAVCIS:CSI16:2,2009-11-02T23:00:00Z,29.4012,-89.0355,10.0,22.368,11111222 
WAVCIS,ioos:station:WAVCIS:CSI16:2,2009-11-02T23:15:00Z,29.4012,-89.0355,10.0,22.374,11111222 
WAVCIS,ioos:station:WAVCIS:CSI16:2,2009-11-02T23:30:00Z,29.4012,-89.0355,10.0,22.397,11111222 
WAVCIS,ioos:station:WAVCIS:CSI16:2,2009-11-02T23:45:00Z,29.4012,-89.0355,10.0,22.398,11111222 
WAVCIS,ioos:station:WAVCIS:CSI16:2,2009-11-03T00:00:00Z,29.4012,-89.0355,10.0,22.414,11111222 
WAVCIS,ioos:station:WAVCIS:CSI16:2,2009-11-03T00:15:00Z,29.4012,-89.0355,10.0,22.434,11111222 
WAVCIS,ioos:station:WAVCIS:CSI16:2,2009-11-03T00:30:00Z,29.4012,-89.0355,10.0,22.454,11111222 
WAVCIS,ioos:station:WAVCIS:CSI16:2,2009-11-03T00:45:00Z,29.4012,-89.0355,10.0,22.474,11111222 
WAVCIS,ioos:station:WAVCIS:CSI16:2,2009-11-03T01:00:00Z,29.4012,-89.0355,10.0,22.485,11111222 
WAVCIS,ioos:station:WAVCIS:CSI16:2,2009-11-03T01:15:00Z,29.4012,-89.0355,10.0,22.483,11111222 
WAVCIS,ioos:station:WAVCIS:CSI16:2,2009-11-03T01:30:00Z,29.4012,-89.0355,10.0,22.49,11111222 
WAVCIS,ioos:station:WAVCIS:CSI16:2,2009-11-03T01:45:00Z,29.4012,-89.0355,10.0,22.501,11111222 
WAVCIS,ioos:station:WAVCIS:CSI16:2,2009-11-03T02:00:00Z,29.4012,-89.0355,10.0,22.511,11111222 
WAVCIS,ioos:station:WAVCIS:CSI16:2,2009-11-03T02:15:00Z,29.4012,-89.0355,10.0,22.506,11111222 
WAVCIS,ioos:station:WAVCIS:CSI16:2,2009-11-03T02:30:00Z,29.4012,-89.0355,10.0,22.501,11111222 
WAVCIS,ioos:station:WAVCIS:CSI16:2,2009-11-03T02:45:00Z,29.4012,-89.0355,10.0,22.518,11111222 
WAVCIS,ioos:station:WAVCIS:CSI16:2,2009-11-03T03:00:00Z,29.4012,-89.0355,10.0,22.526,11111222 
WAVCIS,ioos:station:WAVCIS:CSI16:2,2009-11-03T03:15:00Z,29.4012,-89.0355,10.0,22.527,11111222 
WAVCIS,ioos:station:WAVCIS:CSI16:2,2009-11-03T03:30:00Z,29.4012,-89.0355,10.0,22.52,11111222 
WAVCIS,ioos:station:WAVCIS:CSI16:2,2009-11-03T03:45:00Z,29.4012,-89.0355,10.0,22.507,11111222 
WAVCIS,ioos:station:WAVCIS:CSI16:2,2009-11-03T04:00:00Z,29.4012,-89.0355,10.0,22.504,11111222 
WAVCIS,ioos:station:WAVCIS:CSI16:2,2009-11-03T04:15:00Z,29.4012,-89.0355,10.0,22.508,11111222 
WAVCIS,ioos:station:WAVCIS:CSI16:2,2009-11-03T04:30:00Z,29.4012,-89.0355,10.0,22.508,11111222 
WAVCIS,ioos:station:WAVCIS:CSI16:2,2009-11-03T04:45:00Z,29.4012,-89.0355,10.0,22.514,11111222 
WAVCIS,ioos:station:WAVCIS:CSI16:2,2009-11-03T05:00:00Z,29.4012,-89.0355,10.0,22.514,11111222 
WAVCIS,ioos:station:WAVCIS:CSI16:2,2009-11-03T05:15:00Z,29.4012,-89.0355,10.0,22.517,11111222 
WAVCIS,ioos:station:WAVCIS:CSI16:2,2009-11-03T05:30:00Z,29.4012,-89.0355,10.0,22.531,11111222 
WAVCIS,ioos:station:WAVCIS:CSI16:2,2009-11-03T05:45:00Z,29.4012,-89.0355,10.0,22.539,11111222 
WAVCIS,ioos:station:WAVCIS:CSI16:2,2009-11-03T06:00:00Z,29.4012,-89.0355,10.0,22.511,11111222 
WAVCIS,ioos:station:WAVCIS:CSI16:2,2009-11-03T06:15:00Z,29.4012,-89.0355,10.0,22.495,11111222 
WAVCIS,ioos:station:WAVCIS:CSI16:2,2009-11-03T06:30:00Z,29.4012,-89.0355,10.0,22.483,11111222 
WAVCIS,ioos:station:WAVCIS:CSI16:2,2009-11-03T06:45:00Z,29.4012,-89.0355,10.0,22.363,11111222 
WAVCIS,ioos:station:WAVCIS:CSI16:2,2009-11-03T07:00:00Z,29.4012,-89.0355,10.0,21.548,11111222 
WAVCIS,ioos:station:WAVCIS:CSI16:2,2009-11-03T07:15:00Z,29.4012,-89.0355,10.0,21.74,11111222 
WAVCIS,ioos:station:WAVCIS:CSI16:2,2009-11-03T07:30:00Z,29.4012,-89.0355,10.0,21.784,11111222 
WAVCIS,ioos:station:WAVCIS:CSI16:2,2009-11-03T07:45:00Z,29.4012,-89.0355,10.0,21.544,11111222 
WAVCIS,ioos:station:WAVCIS:CSI16:2,2009-11-03T08:00:00Z,29.4012,-89.0355,10.0,21.251,11111222 
WAVCIS,ioos:station:WAVCIS:CSI16:2,2009-11-03T08:15:00Z,29.4012,-89.0355,10.0,21.22,11111222 
WAVCIS,ioos:station:WAVCIS:CSI16:2,2009-11-03T08:30:00Z,29.4012,-89.0355,10.0,21.078,11111222 
WAVCIS,ioos:station:WAVCIS:CSI16:2,2009-11-03T08:45:00Z,29.4012,-89.0355,10.0,21.068,11111222 
WAVCIS,ioos:station:WAVCIS:CSI16:2,2009-11-03T09:00:00Z,29.4012,-89.0355,10.0,21.075,11111222 
WAVCIS,ioos:station:WAVCIS:CSI16:2,2009-11-03T09:15:00Z,29.4012,-89.0355,10.0,21.073,11111222 
WAVCIS,ioos:station:WAVCIS:CSI16:2,2009-11-03T09:30:00Z,29.4012,-89.0355,10.0,21.003,11111222 
WAVCIS,ioos:station:WAVCIS:CSI16:2,2009-11-03T09:45:00Z,29.4012,-89.0355,10.0,21.073,11111222 
WAVCIS,ioos:station:WAVCIS:CSI16:2,2009-11-03T10:00:00Z,29.4012,-89.0355,10.0,20.852,11111222 
WAVCIS,ioos:station:WAVCIS:CSI16:2,2009-11-03T10:15:00Z,29.4012,-89.0355,10.0,20.629,11111222 
WAVCIS,ioos:station:WAVCIS:CSI16:2,2009-11-03T10:30:00Z,29.4012,-89.0355,10.0,20.597,11111222 
WAVCIS,ioos:station:WAVCIS:CSI16:2,2009-11-03T10:45:00Z,29.4012,-89.0355,10.0,20.777,11111222 
WAVCIS,ioos:station:WAVCIS:CSI16:2,2009-11-03T11:00:00Z,29.4012,-89.0355,10.0,20.656,11111222 
WAVCIS,ioos:station:WAVCIS:CSI16:2,2009-11-03T11:15:00Z,29.4012,-89.0355,10.0,20.855,11111222 
WAVCIS,ioos:station:WAVCIS:CSI16:2,2009-11-03T11:30:00Z,29.4012,-89.0355,10.0,20.997,11111222 
WAVCIS,ioos:station:WAVCIS:CSI16:2,2009-11-03T11:45:00Z,29.4012,-89.0355,10.0,20.93,11111222 
WAVCIS,ioos:station:WAVCIS:CSI16:2,2009-11-03T12:00:00Z,29.4012,-89.0355,10.0,20.853,11111222 
WAVCIS,ioos:station:WAVCIS:CSI16:2,2009-11-03T12:15:00Z,29.4012,-89.0355,10.0,20.722,11111222 
WAVCIS,ioos:station:WAVCIS:CSI16:2,2009-11-03T12:30:00Z,29.4012,-89.0355,10.0,20.82,11111222 
WAVCIS,ioos:station:WAVCIS:CSI16:2,2009-11-03T12:45:00Z,29.4012,-89.0355,10.0,21.196,11111222 
WAVCIS,ioos:station:WAVCIS:CSI16:2,2009-11-03T13:00:00Z,29.4012,-89.0355,10.0,20.661,11111222 
WAVCIS,ioos:station:WAVCIS:CSI16:2,2009-11-03T13:15:00Z,29.4012,-89.0355,10.0,21.087,11111222 
WAVCIS,ioos:station:WAVCIS:CSI16:2,2009-11-03T13:30:00Z,29.4012,-89.0355,10.0,21.465,11111222 
WAVCIS,ioos:station:WAVCIS:CSI16:2,2009-11-03T13:45:00Z,29.4012,-89.0355,10.0,21.369,11111222 
WAVCIS,ioos:station:WAVCIS:CSI16:2,2009-11-03T14:00:00Z,29.4012,-89.0355,10.0,21.518,11111222 
WAVCIS,ioos:station:WAVCIS:CSI16:2,2009-11-03T14:15:00Z,29.4012,-89.0355,10.0,21.332,11111222 
WAVCIS,ioos:station:WAVCIS:CSI16:2,2009-11-03T14:30:00Z,29.4012,-89.0355,10.0,21.213,11111222 
WAVCIS,ioos:station:WAVCIS:CSI16:2,2009-11-03T14:45:00Z,29.4012,-89.0355,10.0,21.365,11111222 